HORIZONS-3E (43633 NORAD) Tracking and Keplerian Element Data

This shows tracking and keplerian element data for the satellite.

Feedback or suggestion? Click here.




ElementValue
Catalog43633
NameHORIZONS-3E
Epoch Orbit2334
Epoch Day34.71710973
Epoch Year2025
RAAN261.3653
Inclination0.0348
Eccentricity0.0001392
Argument of Perigee21.8698
Mean Anonmoly278.0325
Mean Motion1.00271745
Decay Rate-2.6E-07
L11 43633U 18074B 25034.71710973 -.00000026 00000+0 00000+0 0 9995
L22 43633 0.0348 261.3653 0001392 21.8698 278.0325 1.00271745 23347



Live tracking and technical data element details for HORIZONS-3E (NORAD 43633). HORIZONS-3E can be tracked NOW for your location showing map with azimuth and elevation plus other details from your city location.







IsCatalogInMostPopularTable: catalog: 43633, numindb: 649
Update: records affected: 1



GetName: 43633 HORIZONS-3E

Hit Count: updated at: Wed, 18 Jun 2025 05:28:12 GMT